Flag for U.S.A. Weather past 2 weeks in Bridgeport, Connecticut, U.S.A.

47 °F


Feels Like: 45 °F
Forecast: 34 / 47 °F
Wind: 5 mph from Northeast

Location: Sikorsky Memorial Airport

Current Time: Nov 29, 2015 at 12:57:59 PM

Latest Report: Nov 29, 2015 at 11:52 AM

Visibility: 10 mi

Pressure: 30.22 "Hg

Humidity: 42%

Dew point: 25 °F

Location of BridgeportLocation

Historic Weather in Bridgeport — Graph


Bridgeport temperature yesterday

Maximum temperature yesterday: 61 °F (at 9:52 AM)
Minimum temperature yesterday: 43 °F (at 11:52 PM)
Average temperature yesterday: 52 °F

Past Weeks' High & Low Weather Summary

High66 °F (Nov 16, 2:52 PM)100% (Nov 27, 3:52 AM)30.84 "Hg (Nov 27, 3:52 AM)
Low28 °F (Nov 24, 4:52 AM)23% (Nov 23, 3:52 PM)29.85 "Hg (Nov 23, 12:52 AM)
Average46 °F65%30.29 "Hg
* Reported Nov 14 11:52 AM — Nov 29 11:52 AM, Bridgeport, Weather by CustomWeather, © 2015

Note: Actual official high and low records may vary slightly from our data, if they occured in-between our weather recording intervals... More about our weather records


Bridgeport weather history for previous 24 hours

Time TempWeatherWind HumidityBarometerVisibility
11:52 AM
Sun, Nov 29
47 °FSunny.5 mph42%30.22 "Hg10 mi
10:52 AM43 °FSunny.5 mph60%30.24 "Hg10 mi
9:52 AM37 °FSunny.7 mph70%30.26 "Hg10 mi
8:52 AM38 °FSunny.10 mph70%30.26 "Hg10 mi
7:52 AM38 °FSunny.8 mph70%30.25 "Hg10 mi
6:52 AM38 °FPassing clouds.9 mph70%30.24 "Hg10 mi
5:52 AM38 °FPassing clouds.6 mph73%30.23 "Hg10 mi
4:52 AM39 °FPassing clouds.9 mph73%30.22 "Hg10 mi
3:52 AM39 °FClear.8 mph76%30.21 "Hg10 mi
2:52 AM40 °FClear.10 mph73%30.21 "Hg10 mi
12:52 AM42 °FClear.12 mph73%30.20 "Hg10 mi
11:52 PM
Sat, Nov 28
43 °FPassing clouds.10 mph76%30.20 "Hg10 mi
10:52 PM45 °FPassing clouds.9 mph74%30.20 "Hg10 mi
9:52 PM46 °FOvercast.7 mph73%30.21 "Hg10 mi
8:52 PM46 °FOvercast.9 mph77%30.20 "Hg10 mi
7:52 PM47 °FOvercast.6 mph80%30.18 "Hg10 mi
6:52 PM47 °FOvercast.10 mph83%30.17 "Hg10 mi
5:52 PM48 °FOvercast.8 mph86%30.18 "Hg10 mi
4:52 PM49 °FLight rain. Overcast.8 mph84%30.16 "Hg9 mi
3:52 PM50 °FOvercast.9 mph86%30.15 "Hg10 mi
3:02 PM51 °FLight rain. Mostly cloudy.8 mph86%30.13 "Hg10 mi
2:52 PM51 °FLight rain. More clouds than sun.10 mph86%30.14 "Hg10 mi
1:52 PM55 °FLight rain. Mostly cloudy.8 mph83%30.12 "Hg5 mi
12:52 PM58 °FLight rain. More clouds than sun.7 mph75%30.11 "Hg10 mi
Weather by CustomWeather, © 2015

See weather overviewHow to use our weather pages